• Join FlightAware (Why Join?)
  • Login
  • US Flag GB Flag 
00:23 EST


 

Airport Tracker/Info


-or-


 

Live Flight TrackerFlight Track Log ✈ ASQ5958 ✈ 06-Jul-2013 ✈ KDEN - KAMA

Flight Track Log - Related Links

Times and Time Zones

All times are in EDT time to prevent confusion due to time zone crossing. See the ASQ5958 flight status page for this flight to view local times or setup timezone preferences in your user account.

Time Position Orientation Groundspeed Altitude Reporting Facility
EDT Latitude Longitude Course Direction KTS MPH feet Rate Location/Type
21:58 39.8833 -104.6000 212° Southwest 182 209 6,700  Level Denver TRACON
21:59 39.8500 -104.5333 123° Southeast 227 261 8,100 1,380 Climbing Denver TRACON
22:00 39.8333 -104.4500 105° East 281 323 9,400 1,500 Climbing Denver TRACON
22:01 39.7156 -104.3506 205° Southwest  Level FlightAware Approximate
22:01 39.7833 -104.3833 134° Southeast 321 369 11,000  Level Denver TRACON
22:02 39.6203 -104.4065 201° Southwest  Level FlightAware Approximate
22:02 39.7286 -104.3756 174° South 318 366 12,000  Level Denver Center
22:03 39.5296 -104.4730 212° Southwest  Level FlightAware Approximate
22:03 39.6339 -104.3883 186° South 339 390 13,800  Level Denver Center
22:04 39.5367 -104.4019 186° South 353 406 15,600 1,740 Climbing Denver Center
22:05 39.4372 -104.4161 186° South 359 413 17,400 1,620 Climbing Denver Center
22:06 39.3256 -104.4311 186° South 372 428 19,000 1,260 Climbing Denver Center
22:07 39.2186 -104.4469 187° South 388 447 20,000 900 Climbing Denver Center
22:08 39.1222 -104.4561 184° South 408 470 20,900 960 Climbing Denver Center
22:09 38.9919 -104.4186 167° South 410 472 22,000 1,020 Climbing Denver Center
22:10 38.8833 -104.3897 168° South 416 479 23,000 1,200 Climbing Denver Center
22:11 38.7572 -104.3547 168° South 415 478 24,500 1,560 Climbing Denver Center
22:12 38.6553 -104.3217 166° South 402 463 26,200 1,620 Climbing Denver Center
22:13 38.5656 -104.2211 139° Southeast 396 456 27,900 1,320 Climbing Denver Center
22:14 38.4822 -104.1417 143° Southeast 378 435 29,000 540 Climbing Denver Center
22:15 38.3886 -104.0717 150° Southeast 404 465 29,000  Level Denver Center
22:16 38.2550 -103.9678 149° Southeast 440 506 29,000  Level Denver Center
22:17 38.1489 -103.8847 148° Southeast 462 532 29,000 840 Level Denver Center
22:18 38.0281 -103.7906 148° Southeast 455 524 30,800 960 Climbing Denver Center
22:19 37.9267 -103.7125 149° Southeast 444 511 31,000 60 Climbing Denver Center
22:20 37.8197 -103.6292 148° Southeast 465 535 31,000  Level Denver Center
22:21 37.6917 -103.5319 149° Southeast 476 548 31,000  Level Denver Center
22:22 37.5828 -103.4478 149° Southeast 476 548 31,000  Level Denver Center
22:23 37.4750 -103.3658 149° Southeast 471 542 31,000  Level Denver Center
22:24 37.3497 -103.2714 149° Southeast 469 540 31,000  Level Denver Center
22:25 37.2953 -103.2308 149° Southeast 469 540 31,000  Level Albuquerque Center
22:26 37.1694 -103.1353 149° Southeast 471 542 31,000  Level Albuquerque Center
22:27 37.0606 -103.0542 149° Southeast 473 544 31,000  Level Albuquerque Center
22:28 36.9517 -102.9725 149° Southeast 475 547 31,000  Level Albuquerque Center
22:29 36.8261 -102.8775 149° Southeast 472 543 31,000  Level Albuquerque Center
22:30 36.7181 -102.7967 149° Southeast 471 542 31,000  Level Albuquerque Center
22:31 36.5997 -102.7094 149° Southeast 472 543 31,000  Level Albuquerque Center
22:32 36.4869 -102.6261 149° Southeast 472 543 31,000  Level Albuquerque Center
22:33 36.3756 -102.5425 149° Southeast 470 541 31,000 -360 Level Albuquerque Center
22:34 36.2633 -102.4597 149° Southeast 469 540 30,300 -1,200 Descending Albuquerque Center
22:35 36.1525 -102.3792 150° Southeast 464 534 28,600 -2,520 Descending Albuquerque Center
22:37 35.9286 -102.2161 149° Southeast 465 535 22,700 -2,940 Descending Albuquerque Center
22:38 35.8250 -102.1414 150° Southeast 440 506 19,700 -3,000 Descending Albuquerque Center
22:39 35.7256 -102.0689 149° Southeast 424 488 16,700 -2,940 Descending Albuquerque Center
22:40 35.6353 -101.9914 145° Southeast 404 465 13,800 -3,060 Descending Albuquerque Center
22:41 35.5333 -101.8953 142° Southeast 388 447 10,500 -2,160 Descending Albuquerque Center
22:42 35.4644 -101.8250 140° Southeast 325 374 9,500 -1,560 Descending Albuquerque Center
22:43 35.4044 -101.7628 140° Southeast 298 343 7,400 -2,100 Descending Albuquerque Center